OK1LPD-6 Weather Reports


time (UTC)temp
C
wind
direction
speed
KPH
gust
KPH
rain 1hr
cm
rain 24hr
cm
rain mn
cm
humidity
%
barometer
mb
20260902060613 17 0 0.0 0.0 0.00 0.00 0.00 69 1022.2
20260902055613 17 0 0.0 0.0 0.00 0.00 0.00 72 1022.2
20260902054624 16 0 0.0 0.0 0.00 0.00 0.00 75 1022.1
20260902053614 15 0 0.0 0.0 0.00 0.00 0.00 80 1022.1
20260902052613 15 0 0.0 0.0 0.00 0.00 0.00 88 1022.0
20260902051630 13 0 0.0 0.0 0.00 0.00 0.00 93 1021.9
20260902050614 12 0 0.0 0.0 0.00 0.00 0.00 94 1021.8
20260902045614 11 0 0.0 0.0 0.00 0.00 0.00 96 1021.8
20260902044631 11 0 0.0 0.0 0.00 0.00 0.00 96 1021.7
20260902043614 11 0 0.0 0.0 0.00 0.00 0.00 95 1021.6
20260902042615 11 0 0.0 0.0 0.00 0.00 0.00 95 1021.4
20260902041635 11 0 0.0 0.0 0.00 0.00 0.00 95 1021.3
20260902040615 11 0 0.0 0.0 0.00 0.00 0.00 95 1021.4
20260902035614 11 0 0.0 0.0 0.00 0.00 0.00 95 1021.3
20260902034632 11 0 0.0 0.0 0.00 0.00 0.00 94 1021.2
20260902033615 11 0 0.0 0.0 0.00 0.00 0.00 94 1021.4
20260902032615 11 0 0.0 0.0 0.00 0.00 0.00 94 1021.5
20260902031635 11 0 0.0 0.0 0.00 0.00 0.00 94 1021.6
20260902030615 12 0 0.0 0.0 0.00 0.00 0.00 94 1021.5
20260902025615 12 0 0.0 0.0 0.00 0.00 0.00 94 1021.6
20260902024633 12 0 0.0 0.0 0.00 0.00 0.00 94 1021.4
20260902023615 12 0 0.0 0.0 0.00 0.00 0.00 94 1021.6
20260902022616 12 0 0.0 0.0 0.00 0.00 0.00 94 1021.5
20260902021637 12 0 0.0 0.0 0.00 0.00 0.00 94 1021.6
20260902020615 12 0 0.0 0.0 0.00 0.00 0.00 93 1021.5
20260902015616 12 0 0.0 0.0 0.00 0.00 0.00 93 1021.4
20260902014634 12 0 0.0 0.0 0.00 0.00 0.00 93 1021.5
20260902013615 12 0 0.0 0.0 0.00 0.00 0.00 91 1021.4
20260902012616 12 0 0.0 0.0 0.00 0.00 0.00 90 1021.2
20260902011636 12 0 0.0 0.0 0.00 0.00 0.00 90 1021.2
20260902010616 12 0 0.0 0.0 0.00 0.00 0.00 90 1021.2
20260902005617 12 0 0.0 0.0 0.00 0.00 0.00 90 1021.2
20260902004634 12 0 0.0 0.0 0.00 0.00 0.00 90 1021.2
20260902003616 12 0 0.0 0.0 0.00 0.00 0.00 90 1021.4
20260902002616 12 0 0.0 0.0 0.00 0.00 0.00 89 1021.2
20260902001637 12 0 0.0 0.0 0.00 0.00 0.00 88 1021.4
20260902000617 12 0 0.0 0.0 0.00 0.00 0.00 88 1021.2
20260901235617 12 0 0.0 0.0 0.00 0.00 0.00 88 1021.4
20260901234635 12 0 0.0 0.0 0.00 0.00 0.00 87 1021.3
20260901233617 13 0 0.0 0.0 0.00 0.00 0.00 87 1021.3
20260901232617 13 0 0.0 0.0 0.00 0.00 0.00 86 1021.5
20260901231637 13 0 0.0 0.0 0.00 0.00 0.00 86 1021.3
20260901230617 13 0 0.0 0.0 0.00 0.00 0.00 86 1021.3
20260901225617 13 0 0.0 0.0 0.00 0.00 0.00 86 1021.3
20260901224636 13 0 0.0 0.0 0.00 0.00 0.00 86 1021.3
20260901223617 13 0 0.0 0.0 0.00 0.00 0.00 84 1021.5
20260901222617 13 0 0.0 0.0 0.00 0.00 0.00 84 1021.5
20260901221638 13 0 0.0 0.0 0.00 0.00 0.00 84 1021.4
20260901220618 14 0 0.0 0.0 0.00 0.00 0.00 82 1021.4
20260901215618 14 0 0.0 0.0 0.00 0.00 0.00 82 1021.4
20260901214636 14 0 0.0 0.0 0.00 0.00 0.00 82 1021.5
20260901213618 14 0 0.0 0.0 0.00 0.00 0.00 82 1021.4
20260901212618 14 0 0.0 0.0 0.00 0.00 0.00 83 1021.2
20260901211638 15 0 0.0 0.0 0.00 0.00 0.00 83 1021.2
20260901210618 15 0 0.0 0.0 0.00 0.00 0.00 82 1021.2
20260901205618 15 0 0.0 0.0 0.00 0.00 0.00 81 1021.1
20260901204632 15 0 0.0 0.0 0.00 0.00 0.00 82 1021.1
20260901203619 15 0 0.0 0.0 0.00 0.00 0.00 81 1020.9
20260901202618 16 0 0.0 0.0 0.00 0.00 0.00 81 1021.0
20260901201630 15 0 0.0 0.0 0.00 0.00 0.00 80 1021.0
20260901200619 16 0 0.0 0.0 0.00 0.00 0.00 78 1020.9
20260901195619 16 0 0.0 0.0 0.00 0.00 0.00 77 1021.0
20260901194629 16 0 0.0 0.0 0.00 0.00 0.00 76 1020.9
20260901193619 16 0 0.0 0.0 0.00 0.00 0.00 75 1020.8
20260901192619 16 0 0.0 0.0 0.00 0.00 0.00 75 1020.8
20260901191631 17 0 0.0 0.0 0.00 0.00 0.00 76 1020.7
20260901190619 17 0 0.0 0.0 0.00 0.00 0.00 71 1020.8
20260901185620 17 0 0.0 0.0 0.00 0.00 0.00 70 1020.6
20260901184629 17 0 0.0 0.0 0.00 0.00 0.00 69 1020.6
20260901183620 18 0 0.0 0.0 0.00 0.00 0.00 70 1020.3
20260901182619 18 0 0.0 0.0 0.00 0.00 0.00 67 1020.3
20260901181632 18 0 0.0 0.0 0.00 0.00 0.00 64 1020.2
20260901180621 19 0 0.0 0.0 0.00 0.00 0.00 62 1019.9
20260901175620 19 0 0.0 0.0 0.00 0.00 0.00 62 1019.9
20260901174630 20 0 0.0 0.0 0.00 0.00 0.00 60 1019.9
20260901173620 20 0 0.0 0.0 0.00 0.00 0.00 59 1019.9
20260901172620 20 0 0.0 0.0 0.00 0.00 0.00 58 1019.9
20260901171632 21 0 0.0 0.0 0.00 0.00 0.00 56 1019.8
20260901170620 22 0 0.0 0.0 0.00 0.00 0.00 53 1019.8
20260901165621 23 0 0.0 0.0 0.00 0.00 0.00 48 1019.8
20260901164632 25 0 0.0 0.0 0.00 0.00 0.00 43 1019.8
20260901163620 25 0 0.0 0.0 0.00 0.00 0.00 41 1020.1
20260901162621 27 0 0.0 0.0 0.00 0.00 0.00 34 1019.8
20260901161642 27 0 0.0 0.0 0.00 0.00 0.00 41 1019.7
20260901160622 25 0 0.0 0.0 0.00 0.00 0.00 43 1019.7
20260901155621 25 0 0.0 0.0 0.00 0.00 0.00 43 1019.8
20260901154639 24 0 0.0 0.0 0.00 0.00 0.00 46 1019.9
20260901153621 25 0 0.0 0.0 0.00 0.00 0.00 42 1019.9
20260901152621 26 0 0.0 0.0 0.00 0.00 0.00 40 1019.8
20260901151645 26 0 0.0 0.0 0.00 0.00 0.00 37 1019.9
20260901150621 24 0 0.0 0.0 0.00 0.00 0.00 43 1020.0
20260901145622 25 0 0.0 0.0 0.00 0.00 0.00 40 1020.1
20260901144641 26 0 0.0 0.0 0.00 0.00 0.00 36 1020.1
20260901143622 26 0 0.0 0.0 0.00 0.00 0.00 36 1020.1
20260901142622 25 0 0.0 0.0 0.00 0.00 0.00 40 1020.3
20260901141643 23 0 0.0 0.0 0.00 0.00 0.00 42 1020.4
20260901140622 25 0 0.0 0.0 0.00 0.00 0.00 40 1020.2
20260901135622 26 0 0.0 0.0 0.00 0.00 0.00 37 1020.2
20260901134640 27 0 0.0 0.0 0.00 0.00 0.00 32 1020.3
20260901133623 27 0 0.0 0.0 0.00 0.00 0.00 35 1020.3
20260901132622 26 0 0.0 0.0 0.00 0.00 0.00 39 1020.4
20260901131644 26 0 0.0 0.0 0.00 0.00 0.00 40 1020.5
20260901130623 26 0 0.0 0.0 0.00 0.00 0.00 40 1020.5
20260901125623 26 0 0.0 0.0 0.00 0.00 0.00 40 1020.6
20260901124641 26 0 0.0 0.0 0.00 0.00 0.00 40 1020.6
20260901123624 25 0 0.0 0.0 0.00 0.00 0.00 41 1020.7
20260901122623 25 0 0.0 0.0 0.00 0.00 0.00 42 1020.7
20260901121644 25 0 0.0 0.0 0.00 0.00 0.00 42 1020.7
20260901120623 24 0 0.0 0.0 0.00 0.00 0.00 44 1020.7
20260901115624 24 0 0.0 0.0 0.00 0.00 0.00 44 1020.9
20260901114641 23 0 0.0 0.0 0.00 0.00 0.00 44 1020.9
20260901113623 23 0 0.0 0.0 0.00 0.00 0.00 45 1021.1
20260901112624 23 0 0.0 0.0 0.00 0.00 0.00 45 1021.1
20260901111644 23 0 0.0 0.0 0.00 0.00 0.00 45 1021.1
20260901110623 23 0 0.0 0.0 0.00 0.00 0.00 45 1021.1
20260901105624 23 0 0.0 0.0 0.00 0.00 0.00 44 1020.9
20260901104642 23 0 0.0 0.0 0.00 0.00 0.00 45 1021.1
20260901103624 24 0 0.0 0.0 0.00 0.00 0.00 43 1021.0
20260901102624 23 0 0.0 0.0 0.00 0.00 0.00 49 1021.2
20260901101644 22 0 0.0 0.0 0.00 0.00 0.00 50 1021.2
20260901100625 22 0 0.0 0.0 0.00 0.00 0.00 50 1021.2
20260901095625 22 0 0.0 0.0 0.00 0.00 0.00 50 1021.1
20260901094643 22 0 0.0 0.0 0.00 0.00 0.00 54 1021.1
20260901093624 22 0 0.0 0.0 0.00 0.00 0.00 56 1021.1
20260901092625 21 0 0.0 0.0 0.00 0.00 0.00 57 1021.1
20260901091645 21 0 0.0 0.0 0.00 0.00 0.00 56 1021.1
20260901090625 21 0 0.0 0.0 0.00 0.00 0.00 57 1021.2
20260901085625 21 45 0.0 1.6 0.00 0.00 0.00 55 1021.1
20260901084639 21 0 0.0 0.0 0.00 0.00 0.00 55 1020.9
20260901083626 21 0 0.0 0.0 0.00 0.00 0.00 55 1020.9
20260901082626 21 0 0.0 0.0 0.00 0.00 0.00 56 1020.7
20260901081637 21 0 0.0 0.0 0.00 0.00 0.00 55 1020.7
20260901080626 21 0 0.0 0.0 0.00 0.00 0.00 57 1020.7
20260901075625 21 0 0.0 0.0 0.00 0.00 0.00 55 1020.3
20260901074636 21 0 0.0 0.0 0.00 0.00 0.00 55 1020.3
20260901073626 21 0 0.0 0.0 0.00 0.00 0.00 56 1020.2
20260901072627 21 0 0.0 0.0 0.00 0.00 0.00 57 1020.0
20260901071637 21 0 0.0 0.0 0.00 0.03 0.00 60 1020.1
20260901070627 20 0 0.0 0.0 0.00 0.05 0.00 60 1020.3
20260901065626 21 0 0.0 0.0 0.00 0.10 0.00 60 1020.2
20260901064637 21 0 0.0 0.0 0.00 0.15 0.00 63 1020.3
20260901063626 20 0 0.0 0.0 0.00 0.23 0.00 62 1020.3
20260901062627 21 0 0.0 0.0 0.00 0.33 0.00 63 1020.1
20260901061639 21 0 0.0 0.0 0.00 0.64 0.00 62 1020.1